Oakland, CA

6:06 AM PST on December 07, 2019 (GMT -0800)
Metro Oakland International

Weather History for KOAK - October, 2019

Change the Weather History Date:

Saturday, October 26, 2019

  Actual Average Record
Temperature  
Mean Temperature 62 °F 59 °F  
Max Temperature 75 °F 68 °F 93 °F (2003)
Min Temperature 49 °F 50 °F 42 °F (1954)
Degree Days  
Heating Degree Days 3 6  
Month to date heating degree days 93 117  
Since 1 July heating degree days 123 317  
Cooling Degree Days 0 0  
Month to date cooling degree days 31 12  
Year to date cooling degree days 395 137  
Growing Degree Days 12 (Base 50)    
Moisture  
Dew Point 49 °F    
Average Humidity 61    
Maximum Humidity 89    
Minimum Humidity 33    
Precipitation  
Precipitation 0.00 in 0.06 in 1.04 in (2000)
Month to date precipitation T 0.86  
Year to date precipitation 15.94 14.36  
Sea Level Pressure  
Sea Level Pressure 29.84 in    
Wind  
Wind Speed 6 mph (WNW)    
Max Wind Speed 16 mph    
Max Gust Speed 20 mph    
Visibility 10 miles    
Events      
T = Trace of Precipitation, MM = Missing Value Source: NWS Daily Summary

Daily Weather History Graph

Daily Weather History Graph

Search for Another Location

Airport or City:

Astronomy

Oct. 26, 2019 Rise Set
Actual Time 7:27 AM PDT 6:17 PM PDT
Civil Twilight 7:00 AM PDT 6:44 PM PDT
Nautical Twilight 6:30 AM PDT 7:14 PM PDT
Astronomical Twilight 5:59 AM PDT 7:45 PM PDT
Moon 5:33 AM PDT (10/26) 5:53 PM PDT (10/26)
Length of Visible Light 11h 43m
Length of Day
10h 49m
Waning Crescent, 3% of the Moon is Illuminated
Oct 26
Waning Crescent
Oct 27
New
Nov 4
First Quarter
Nov 12
Full
Nov 19
Last Quarter

Hourly Weather History & Observations

Time (PDT) Temp. Dew Point Humidity Pressure Visibility Wind Dir Wind Speed Gust Speed Precip Events Conditions
12:53 AM 63.0 °F 39.9 °F 43% 29.97 in 10.0 mi Calm Calm - N/A   Scattered Clouds
1:53 AM 61.0 °F 39.0 °F 44% 29.95 in 10.0 mi Calm Calm - N/A   Partly Cloudy
2:53 AM 57.9 °F 44.1 °F 60% 29.94 in 10.0 mi Calm Calm - N/A   Partly Cloudy
3:53 AM 55.0 °F 46.9 °F 74% 29.92 in 10.0 mi Calm Calm - N/A   Partly Cloudy
4:53 AM 51.1 °F 44.1 °F 77% 29.91 in 10.0 mi NNE 3.5 mph - N/A   Partly Cloudy
5:53 AM 55.9 °F 48.9 °F 77% 29.91 in 10.0 mi Calm Calm - N/A   Partly Cloudy
6:53 AM 55.4 °F 50.0 °F 82% 29.89 in 10.0 mi Calm Calm - N/A   Scattered Clouds
7:53 AM 53.6 °F 50.0 °F 88% 29.91 in 10.0 mi Calm Calm - N/A   Partly Cloudy
8:53 AM 62.6 °F 55.4 °F 77% 29.92 in 10.0 mi Calm Calm - N/A   Partly Cloudy
9:53 AM 64.0 °F 54.0 °F 70% 29.91 in 10.0 mi WSW 4.6 mph - N/A   Partly Cloudy
10:53 AM 68.0 °F 53.1 °F 59% 29.90 in 10.0 mi West 5.8 mph - N/A   Partly Cloudy
11:53 AM 73.0 °F 46.0 °F 38% 29.88 in 10.0 mi WNW 8.1 mph - N/A   Partly Cloudy
12:53 PM 73.0 °F 43.0 °F 34% 29.85 in 10.0 mi West 6.9 mph - N/A   Partly Cloudy
1:53 PM 72.0 °F 50.0 °F 46% 29.82 in 10.0 mi West 8.1 mph - N/A   Partly Cloudy
2:53 PM 73.0 °F 50.0 °F 44% 29.80 in 10.0 mi WNW 13.8 mph - N/A   Scattered Clouds
3:53 PM 71.1 °F 53.1 °F 53% 29.78 in 10.0 mi WNW 13.8 mph - N/A   Scattered Clouds
4:53 PM 68.0 °F 52.0 °F 56% 29.76 in 10.0 mi WNW 12.7 mph - N/A   Mostly Cloudy
5:53 PM 64.0 °F 52.0 °F 65% 29.75 in 10.0 mi WNW 15.0 mph - N/A   Scattered Clouds
6:53 PM 61.0 °F 52.0 °F 72% 29.75 in 10.0 mi WNW 12.7 mph - N/A   Scattered Clouds
7:53 PM 59.0 °F 50.0 °F 72% 29.75 in 10.0 mi WNW 8.1 mph - N/A   Scattered Clouds
8:53 PM 57.0 °F 50.0 °F 77% 29.75 in 9.0 mi WNW 8.1 mph - N/A   Mostly Cloudy
9:53 PM 55.9 °F 50.0 °F 80% 29.75 in 8.0 mi WNW 11.5 mph - N/A   Mostly Cloudy
10:51 PM 55.4 °F 50.0 °F 82% 29.76 in 8.0 mi NW 6.9 mph - N/A   Scattered Clouds
10:53 PM 55.9 °F 50.0 °F 80% 29.75 in 8.0 mi NNW 4.6 mph - N/A   Scattered Clouds
11:53 PM 50.0 °F 46.0 °F 86% 29.75 in 7.0 mi Calm Calm - N/A   Scattered Clouds